Overview Statistics Trail Chart Weather Telemetry Raw packets
 

This is the latest recevied weather packets stored in our database for station/object K7PMV-13. If no packets are shown the sender has not sent any weather packets the latest 10 day(s).

<< 63 64 65 66 67 68 69 >>
Time Temp. Humidity Pressure Rain* Wind** Luminosity Snow
1777163358 28.89° C 23% 1003 hPa 0 mm - 292 W/m² -
1777163055 28.89° C 23% 1003 hPa 0 mm - 366 W/m² -
1777162753 28.89° C 24% 1003 hPa 0 mm - 392 W/m² -
1777162450 28.33° C 24% 1003 hPa 0 mm - 258 W/m² -
1777162147 28.89° C 24% 1003 hPa 0 mm - 339 W/m² -
1777161844 28.89° C 23% 1003.1 hPa 0 mm - 376 W/m² -
1777161541 28.89° C 23% 1003.2 hPa 0 mm - 371 W/m² -
1777160330 28.89° C 24% 1003.1 hPa 0 mm - 448 W/m² -
1777160027 28.89° C 24% 1003.2 hPa 0 mm - 225 W/m² -
1777159724 28.89° C 24% 1003.2 hPa 0 mm - 311 W/m² -
1777159421 28.89° C 24% 1003.2 hPa 0 mm - 425 W/m² -
1777159118 28.89° C 24% 1003.4 hPa 0 mm - 264 W/m² -
1777158815 28.89° C 24% 1003.5 hPa 0 mm - 276 W/m² -
1777158513 28.89° C 24% 1003.4 hPa 0 mm - 359 W/m² -
1777158210 29.44° C 24% 1003.6 hPa 0 mm - 473 W/m² -
1777157907 29.44° C 24% 1003.7 hPa 0 mm - 707 W/m² -
1777157605 29.44° C 23% 1003.7 hPa 0 mm - 417 W/m² -
1777157302 29.44° C 23% 1003.7 hPa 0 mm - 722 W/m² -
1777156999 30° C 23% 1003.9 hPa 0 mm - 715 W/m² -
1777156696 28.89° C 24% 1003.9 hPa 0 mm - 260 W/m² -
1777156393 28.89° C 23% 1004 hPa 0 mm - 768 W/m² -
1777156090 28.89° C 24% 1004.1 hPa 0 mm - 795 W/m² -
1777155788 28.89° C 24% 1004.2 hPa 0 mm - 380 W/m² -
1777155486 29.44° C 23% 1004.3 hPa 0 mm - 814 W/m² -
1777155183 30° C 23% 1004.4 hPa 0 mm - 751 W/m² -

* Rain latest hour (hover to see other rain measurements)
** Current wind speed in m/s (hover to see current wind gust speed)